When you browse on this site, cookies collect data to enhance your experience and personalize the content and advertising you see.
Visit our Privacy Policy to learn more. By continuing to use the site, you agree to this use of cookies and data.
  • In Denmark
  • List of Countries
  • For 7 days
  • Water Temperature
  • Satellite Maps
  • Weather Map
  • Weather Widgets
  • user-avatar
    Login

    Hourly Weather Czerniec

    Today, 19 February, Tuesday

    Time Temperature Precipitation Wind Pressure Humidity
    00:00 +2°C° 0 mm 2 mps 721 mmHg 69%
    01:00 +2°C° 0 mm 2 mps 721 mmHg 66%
    02:00 +2°C° 0 mm 2 mps 720 mmHg 66%
    03:00 +2°C° 0 mm 2 mps 720 mmHg 66%
    04:00 +1°C° 0 mm 2 mps 720 mmHg 65%
    05:00 +1°C° 0 mm 2 mps 720 mmHg 67%
    06:00 +1°C° 0 mm 2 mps 720 mmHg 68%
    07:00 +1°C° 0 mm 2 mps 719 mmHg 69%
    08:00 +3°C° 0 mm 2 mps 720 mmHg 67%
    09:00 +5°C° 0 mm 2 mps 720 mmHg 64%
    10:00 +8°C° 0 mm 2 mps 720 mmHg 62%
    11:00 +9°C° 0 mm 2 mps 720 mmHg 60%
    12:00 +10°C° 0 mm 2 mps 719 mmHg 58%
    13:00 +12°C° 0 mm 2 mps 719 mmHg 56%
    14:00 +10°C° 0 mm 2 mps 719 mmHg 61%
    15:00 +11°C° 0 mm 1 mps 719 mmHg 66%
    16:00 +10°C° 0 mm 1 mps 719 mmHg 71%
    17:00 +8°C° 0 mm 1 mps 718 mmHg 76%
    18:00 +5°C° 0 mm 2 mps 718 mmHg 80%
    19:00 +3°C° 0 mm 2 mps 718 mmHg 84%
    20:00 +3°C° 0 mm 2 mps 718 mmHg 83%
    21:00 +3°C° 0 mm 2 mps 718 mmHg 81%
    22:00 +3°C° 0 mm 2 mps 718 mmHg 80%
    23:00 +3°C° 0.2 mm 2 mps 718 mmHg 81%

    Tomorrow, 20 February, Wednesday

    Time Temperature Precipitation Wind Pressure Humidity
    00:00 +3°C° 0.2 mm 2 mps 718 mmHg 82%
    01:00 +4°C° 0.2 mm 2 mps 718 mmHg 83%
    02:00 +3°C° 0.4 mm 2 mps 718 mmHg 87%
    03:00 +3°C° 0.4 mm 2 mps 718 mmHg 90%
    04:00 +3°C° 0.4 mm 2 mps 718 mmHg 93%
    05:00 +3°C° 0 mm 2 mps 718 mmHg 92%
    06:00 +2°C° 0 mm 2 mps 719 mmHg 92%
    07:00 +2°C° 0 mm 2 mps 719 mmHg 91%
    08:00 +2°C° 0.1 mm 3 mps 719 mmHg 87%
    09:00 +3°C° 0.1 mm 3 mps 720 mmHg 84%
    10:00 +3°C° 0.1 mm 4 mps 720 mmHg 80%
    11:00 +4°C° 0.1 mm 4 mps 720 mmHg 77%
    12:00 +4°C° 0.1 mm 4 mps 720 mmHg 74%
    13:00 +3°C° 0.1 mm 5 mps 721 mmHg 71%
    14:00 +4°C° 0.1 mm 4 mps 721 mmHg 72%
    15:00 +4°C° 0.1 mm 4 mps 721 mmHg 73%
    16:00 +3°C° 0.1 mm 4 mps 721 mmHg 74%
    17:00 +3°C° 0 mm 3 mps 721 mmHg 78%
    18:00 +2°C° 0 mm 3 mps 721 mmHg 81%
    19:00 +1°C° 0 mm 3 mps 722 mmHg 85%
    20:00 +1°C° 0 mm 3 mps 722 mmHg 85%
    21:00 +1°C° 0 mm 3 mps 722 mmHg 85%
    22:00 +3°C° 0 mm 2 mps 723 mmHg 86%
    23:00 +2°C° 0 mm 2 mps 723 mmHg 86%

    Day after tomorrow, 21 February, Thursday

    Time Temperature Precipitation Wind Pressure Humidity
    00:00 +2°C° 0 mm 2 mps 723 mmHg 86%
    01:00 +2°C° 0 mm 2 mps 723 mmHg 87%
    02:00 +2°C° 0 mm 2 mps 723 mmHg 86%
    03:00 +2°C° 0 mm 2 mps 723 mmHg 86%
    04:00 +2°C° 0 mm 2 mps 723 mmHg 86%
    05:00 +2°C° 0 mm 2 mps 723 mmHg 86%
    06:00 +2°C° 0 mm 2 mps 723 mmHg 86%
    07:00 +2°C° 0 mm 2 mps 723 mmHg 86%
    08:00 +3°C° 0.1 mm 2 mps 723 mmHg 83%
    09:00 +4°C° 0.1 mm 2 mps 723 mmHg 80%
    10:00 +5°C° 0.1 mm 2 mps 723 mmHg 78%
    11:00 +4°C° 0.1 mm 3 mps 723 mmHg 78%
    12:00 +4°C° 0.1 mm 3 mps 723 mmHg 78%
    13:00 +5°C° 0.1 mm 3 mps 722 mmHg 78%
    14:00 +4°C° 0.3 mm 3 mps 722 mmHg 80%
    15:00 +4°C° 0.3 mm 3 mps 722 mmHg 82%
    16:00 +4°C° 0.3 mm 3 mps 722 mmHg 84%
    17:00 +4°C° 1 mm 3 mps 722 mmHg 85%
    18:00 +3°C° 1 mm 3 mps 721 mmHg 86%
    19:00 +3°C° 1 mm 3 mps 721 mmHg 87%
    20:00 +3°C° 0.2 mm 3 mps 721 mmHg 87%
    21:00 +3°C° 0.2 mm 3 mps 721 mmHg 87%
    22:00 +3°C° 0.2 mm 3 mps 721 mmHg 88%
    23:00 +3°C° 0.6 mm 3 mps 720 mmHg 90%

    22 February, Friday

    Time Temperature Precipitation Wind Pressure Humidity
    00:00 +3°C° 0.6 mm 3 mps 720 mmHg 92%
    01:00 +3°C° 0.6 mm 3 mps 720 mmHg 94%
    02:00 +3°C° 0.7 mm 3 mps 720 mmHg 95%
    03:00 +3°C° 0.7 mm 3 mps 720 mmHg 95%
    04:00 +3°C° 0.7 mm 3 mps 719 mmHg 96%
    05:00 +3°C° 0.8 mm 4 mps 720 mmHg 96%
    06:00 +3°C° 0.8 mm 4 mps 720 mmHg 95%
    07:00 +2°C° 0.8 mm 5 mps 721 mmHg 95%
    08:00 0°C° 0.6 mm 5 mps 722 mmHg 94%
    09:00 -1°C° 0.6 mm 4 mps 723 mmHg 93%
    10:00 -3°C° 0.6 mm 4 mps 723 mmHg 92%
    11:00 -3°C° 0.2 mm 4 mps 724 mmHg 89%
    12:00 -3°C° 0.2 mm 4 mps 725 mmHg 85%
    13:00 -5°C° 0.2 mm 5 mps 726 mmHg 82%
    14:00 -5°C° 0 mm 5 mps 727 mmHg 78%
    15:00 -5°C° 0 mm 5 mps 727 mmHg 75%
    16:00 -4°C° 0 mm 4 mps 728 mmHg 71%
    17:00 -5°C° 0 mm 4 mps 728 mmHg 74%
    18:00 -6°C° 0 mm 3 mps 729 mmHg 77%
    19:00 -7°C° 0 mm 3 mps 730 mmHg 80%
    20:00 -6°C° 0 mm 2 mps 730 mmHg 81%
    21:00 -6°C° 0 mm 2 mps 730 mmHg 81%
    22:00 -6°C° 0 mm 1 mps 731 mmHg 82%
    23:00 -6°C° 0 mm 1 mps 731 mmHg 80%

    23 February, Saturday

    Time Temperature Precipitation Wind Pressure Humidity
    00:00 -6°C° 0 mm 1 mps 731 mmHg 79%
    01:00 -6°C° 0 mm 1 mps 731 mmHg 77%
    02:00 -6°C° 0 mm 1 mps 731 mmHg 76%
    03:00 -6°C° 0 mm 1 mps 731 mmHg 76%
    04:00 -7°C° 0 mm 2 mps 731 mmHg 75%
    05:00 -7°C° 0 mm 2 mps 731 mmHg 76%
    06:00 -7°C° 0 mm 2 mps 731 mmHg 77%
    07:00 -7°C° 0 mm 2 mps 731 mmHg 77%
    08:00 -6°C° 0 mm 2 mps 731 mmHg 70%
    09:00 -5°C° 0 mm 2 mps 731 mmHg 63%
    10:00 -5°C° 0 mm 3 mps 732 mmHg 56%
    11:00 -4°C° 0 mm 3 mps 732 mmHg 52%
    12:00 -4°C° 0 mm 3 mps 731 mmHg 48%
    13:00 -2°C° 0 mm 3 mps 731 mmHg 43%
    14:00 -2°C° 0 mm 3 mps 731 mmHg 44%
    15:00 -2°C° 0 mm 2 mps 731 mmHg 45%
    16:00 -3°C° 0 mm 2 mps 730 mmHg 45%
    17:00 -3°C° 0 mm 2 mps 730 mmHg 49%
    18:00 -2°C° 0 mm 1 mps 730 mmHg 53%
    19:00 -3°C° 0 mm 1 mps 730 mmHg 57%
    20:00 -2°C° 0 mm 1 mps 730 mmHg 56%
    21:00 -2°C° 0 mm 1 mps 730 mmHg 56%
    22:00 -2°C° 0 mm 1 mps 730 mmHg 56%
    23:00 -3°C° 0 mm 1 mps 730 mmHg 58%

    24 February, Sunday

    Time Temperature Precipitation Wind Pressure Humidity
    00:00 -3°C° 0 mm 1 mps 730 mmHg 61%
    01:00 -3°C° 0 mm 1 mps 730 mmHg 63%
    02:00 -4°C° 0 mm 1 mps 730 mmHg 65%
    03:00 -4°C° 0 mm 1 mps 730 mmHg 66%
    04:00 -4°C° 0 mm 1 mps 730 mmHg 68%
    05:00 -4°C° 0 mm 1 mps 730 mmHg 69%
    06:00 -4°C° 0 mm 1 mps 730 mmHg 71%
    07:00 -4°C° 0 mm 1 mps 731 mmHg 72%
    08:00 -3°C° 0 mm 1 mps 731 mmHg 67%
    09:00 -2°C° 0 mm 1 mps 731 mmHg 61%
    10:00 -1°C° 0 mm 1 mps 732 mmHg 56%
    11:00 0°C° 0 mm 1 mps 732 mmHg 54%
    12:00 -1°C° 0 mm 2 mps 732 mmHg 52%
    13:00 -1°C° 0 mm 2 mps 732 mmHg 50%
    14:00 -1°C° 0 mm 2 mps 731 mmHg 52%
    15:00 -1°C° 0 mm 2 mps 731 mmHg 54%
    16:00 -2°C° 0 mm 2 mps 731 mmHg 56%
    17:00 -1°C° 0 mm 1 mps 731 mmHg 60%
    18:00 -2°C° 0 mm 1 mps 731 mmHg 65%
    19:00 -4°C° 0 mm 0 mps 731 mmHg 70%
    20:00 -4°C° 0 mm 0 mps 731 mmHg 70%
    21:00 -4°C° 0 mm 0 mps 731 mmHg 70%
    22:00 -4°C° 0 mm 0 mps 731 mmHg 70%
    23:00 -4°C° 0 mm 0 mps 731 mmHg 70%
    Show more